Location: Bieujac
(44.5398°N, 0.1549°W)
Time: 16:53:47
(UTC+00:00)

Cosmos 2016 Rocket - Pass Details

Date: 17 November 2019
Orbit: 947 x 1000 km, 83.0° (Epoch: 14 December)

Event Time Altitude Azimuth Distance (km) Brightness Sun altitude
Rises 06:04:45 0° 206° (SSW) 3,653 6.9 -9.8°
Reaches altitude 10° 06:07:22 10° 213° (SSW) 2,718 6.2 -9.4°
Maximum altitude 06:13:18 45° 285° (WNW) 1,324 4.3 -8.4°
Drops below altitude 10° 06:19:21 10° 357° (N) 2,767 6.2 -7.4°
Sets 06:22:03 0° 4° (N) 3,726 6.9 -6.9°
